Miscellaneous Local Product
Issued by NWS North Platte, NE

Home | Current Version | Previous Version | Text Only | Print | Product List | Glossary On
Versions: 1 2 3 4 5 6 7 8 9 10 11 12 13 14 15 16 17 18 19 20 21 22 23 24 25 26 27 28 29 30 31 32 33 34 35 36 37 38 39 40 41 42 43 44 45 46 47 48 49 50
664
AXUS43 KLBF 270010
MISLBF


WESTERN AND NORTH CENTRAL NEBRASKA HOURLY WEATHER ROUNDUP
NATIONAL WEATHER SERVICE NORTH PLATTE NE
700 PM CDT TUE JUL 26 2016

NOTE: "FAIR" INDICATES FEW OR NO CLOUDS BELOW 12,000 FEET WITH NO
SIGNIFICANT WEATHER AND/OR OBSTRUCTIONS TO VISIBILITY.

NOTE: STATIONS NOT REPORTING VARIABLES SUCH AS SKY/WEATHER OR
PRESSURE ARE PROVIDED BY RAWS AND APRS NETWORKS AND ARE NOT UNDER
NATIONAL WEATHER SERVICE QUALITY CONTROL.

...OBSERVATIONS IN AND NEAR THE EASTERN PANHANDLE OF NEBRASKA...

CITY           SKY/WX    TMP DP  RH WIND       PRES   REMARKS
PINE RIDGE     MOSUNNY   94  59  31 E9        29.92F HX  93
CHADRON        SUNNY     95  56  26 NE3       29.91F HX  93
ALLIANCE       CLOUDY    85  63  47 SE12      29.97F
SIDNEY         CLOUDY    92  39  15 W8        30.02F
$$

...OBSERVATIONS IN NORTHERN NEBRASKA AND FAR SOUTHERN SOUTH DAKOTA...

CITY           SKY/WX    TMP DP  RH WIND       PRES   REMARKS
WINNER         PTSUNNY   88  61  40 E7        29.89F
VALENTINE      SUNNY     92  63  38 S16       29.91F HX  93
THEDFORD       MOSUNNY   87  67  52 S14       30.00F HX  90
AINSWORTH      SUNNY     87  63  45 S15G21    29.96F
O`NEILL        SUNNY     87  62  42 S15       29.98S
ORD            SUNNY     84  64  50 SE13      29.97F
BROKEN BOW     SUNNY     84  67  56 S13G24    30.00R
VALENTINE NWR    N/A     90  66  45 S13         N/A  HX  92
BUTTE            N/A     87  63  44 S12G20      N/A
HALSEY           N/A     85  66  52 S9G16       N/A
EWING            N/A     84  69  60 S5          N/A
$$

...OBSERVATIONS IN SOUTHWEST NEBRASKA AND FAR NORTHEAST COLORADO...

CITY           SKY/WX    TMP DP  RH WIND       PRES   REMARKS
HOLYOKE        FAIR      84  66  54 W12       29.99F
IMPERIAL       CLOUDY    89  61  38 S14       29.97F
OGALLALA       CLOUDY    90  60  36 S14G20    29.97S HX  90
NORTH PLATTE   SUNNY     86  67  52 SE9G20    29.96F
MCCOOK         MOSUNNY   88  62  41 SE14      29.97F
LEXINGTON      SUNNY     85  65  49 S14       29.99R
STAPLETON        N/A     85  68  57 CALM        N/A
GOTHENBURG       N/A     86  62  44 SE9         N/A
CALLAWAY         N/A     83  70  65 S14         N/A
$$

...OBSERVATIONS IN CENTRAL LINCOLN COUNTY AREA...

CITY           SKY/WX    TMP DP  RH WIND       PRES   REMARKS
N.P. AIRPORT   SUNNY     86  67  52 SE9G20    29.96F
N.P. DOWNTOWN    N/A     88  67  50 SE3G12      N/A  HX  91
N.P. SOUTHEAST   N/A     87  68  52 SE3         N/A  HX  90
N.P. HILLCREST   N/A     86  68  54 SE10        N/A
$$

...SOME OBSERVATIONS FROM AROUND THE REGION...

CITY           SKY/WX    TMP DP  RH WIND       PRES   REMARKS
DENVER         CLOUDY    89  39  17 SE5       30.12F
LARAMIE        CLOUDY    79  25  13 W6        30.25F
CHEYENNE       CLOUDY    82  41  23 SE13      30.17F
SCOTTSBLUFF    MOSUNNY   85  58  39 S9        29.98S
RAPID CITY     PTSUNNY   85  47  26 E5G22     29.96F
BISMARCK       PTSUNNY   79  65  62 N12       29.99F
PIERRE         LGT RAIN  76  67  73 SE14G24   29.90S
SIOUX FALLS    PTSUNNY   84  65  52 S12       29.97F
OMAHA          MOSUNNY   85  66  53 SE9       29.99F
GRAND ISLAND   SUNNY     86  66  51 SE8       30.00S
KANSAS CITY    MOSUNNY   85  66  53 E9        30.00R
WICHITA        MOSUNNY   88  70  55 E8        29.95S HX  93
OKLAHOMA CITY  PTSUNNY   85  76  74 SE8       29.92F HX  94
DALLAS         PTSUNNY   92  70  48 E6        29.87S HX  97
AMARILLO       SUNNY     89  60  37 SE20G26   30.01F
DODGE CITY     SUNNY     87  64  46 S10       30.00S
HAYS           SUNNY     88  64  45 SE12      29.98S
GOODLAND       SUNNY     87  64  46 S15       30.01F
$$




USA.gov is the U.S. government's official web portal to all federal, state and local government web resources and services.